Torna al catalogo

STARLINK-34342

AttivoComunicazioniVLEO
NORAD 64271·PAYLOAD·🇺🇸 United States

Lanciato Jun 4, 2025 da Vandenberg Space Force Base

Loading…

Prossimi Passaggi (prossime 24 ore)

TLE

AggiornatoSource: CelesTrak SupGP

Epoca: Sep 14, 2026, 21:37 UTC

1 64271C 25120R   26257.90118056  .00006549  00000+0  19358-3 0  2571
2 64271  53.1589 315.5540 0001196  85.6806  47.5823 15.34374457    19

Traccia STARLINK-34342 in tempo reale con AllMySat

Download on the App Store